Location: Lac Lasalle
(46.0398°N, 74.1576°W)
Time: 14:42:23
(UTC-04:00)

ISS - Pass Details

Date: 24 March 2019
Orbit: 408 x 410 km, 51.6° (Epoch: 26 April)

Event Time Altitude Azimuth Distance (km) Brightness Sun altitude
Rises 20:37:17 0° 248° (WSW) 2,329 0.8 -14.9°
Reaches altitude 10° 20:39:22 10° 251° (WSW) 1,470 -0.2 -15.3°
Maximum altitude 20:42:39 69° 335° (NNW) 440 -3.6 -15.8°
Enters shadow 20:44:25 25° 54° (NE) 869 -2.5 -16.1°
